Location: Rumah Sambob
(2.9167°N, 113.9167°E)
Time: 19:04:30
(UTC+00:00)

ATLAS 2A CENTAUR R/B - Pass Details

Date: 06 June 2020
Orbit: 273 x 15888 km, 26.8° (Epoch: 11 July)

Event Time Altitude Azimuth Distance (km) Brightness Sun altitude
Exits shadow 21:19:13 17° 263° (W) 2,209 4.3 -13.5°
Maximum altitude 21:22:45 35° 321° (NW) 869 2.7 -12.7°
Drops below altitude 10° 21:25:09 10° 33° (NNE) 1,329 4.7 -12.2°
Sets 21:26:34 0° 44° (NE) 1,973 6.1 -11.9°
